Tracking 23731 objects as of 26-Sep-2021
HD Live streaming from Space Station
objects crossing your sky now

JIADING 1

Track JIADING 1 now!
10-day predictions


NORAD ID: 43713
Int'l Code: 2018-094D
Perigee: 489.0 km
Apogee: 507.0 km
Inclination: 97.4 °
Period: 94.4 minutes
Semi major axis: 6869 km
RCS: Unknown
Launch date: November 19, 2018
Source: People's Republic of China (PRC)
Launch site: Jiuquan Satellite Launch Center, China (JSC)
aabbcc
Your satellite tracking list
Your tracking list is empty




NASA's NSSDC Master Catalog

Two Line Element Set (TLE):
1 43713U 18094D   21269.20435451  .00002589  00000-0  10653-3 0  9996
2 43713  97.4027 277.2707 0013162 200.5016 225.8433 15.24971944158577
Source of the keplerian elements: AFSPC